Venez explorer les airs avec nous!

Que ce soit pour un vol de découverte, pour apprendre l’arts du pilotage ou pour voyager, venez nous rejoindre.

Information en heures locale pour LFDL
13 June 2024

Metar
LFBI 131200Z AUTO 20010KT 160V230 CAVOK 22/07 Q1016 NOSIG

Lever du soleil : 06:05

Coucher du soleil : 21:54

Actualité

Appel aux dons

Notre Aéroclub Loudunais a vécu cet été une terrible tragédie qui nous profondément endeuillés et provoqué la perte définitive d’un …

L’aéro club Loudunais organise le dimanche 1/10 un café croissant. Et pour continuer ce moment de convivialité, il sera possible …

C’est avec une infinie tristesse que nous avons appris le décès de notre pilote Gérard Leclerc, de Michèle Monory et …

C’est ce lundi 19 juin que l’Ecole de Parachutisme Ascensionnel de l’Aéroclub Loudunais (EPAAL), a reçu des pensionnaires de l’ADAPEI …

Newsletter Sign Up

Praesent libero sed cursus anted dapibus diam